Globalstar M014

operational
NORAD ID: 25306 Int'l Des: 1998-023 Owner: GLOBT Country: US Constellation: globalstar
LEOCIRCULAR

关于 Globalstar M014

正在加载描述...

实时位置

正在加载3D地球...

即将过境

高度历史

Altitude vs Time

uPlot chart will show altitude changes over time

两行轨道根数

1 25306U 98023A 26062.46219631 -.00000090 00000-0 -22592-3 0 9990
2 25306 51.9813 227.8828 0001933 108.4502 265.7264 11.65484923221402
Epoch: Mar 3, 2026 • Age: 36 hours

当前状态

高度 1843.1 km
速度 6.97 km/s
星下点 48.54°N, 3.75°W
发射日期 Apr 24, 1998
运行时间 27.8 years
类型 communications

技术详情

分类 Payload
质量 450.00 kg
干质量 380.00 kg
总质量 450.00 kg
长度 1.50 m
直径 0.60 m
跨度 12.00 m
形状 Box + 2 Pan
制造商 LOR
平台类型 LS-400
阶段状态 In Orbit
所有者/国家 GLOBT/US

大型星座

Loading constellations...